Time,TemperatureF,DewpointF,PressureIn,WindDirection,WindDirectionDegrees,WindSpeedMPH,WindSpeedGustMPH,Humidity,HourlyPrecipIn,Conditions,Clouds,dailyrainin,SoftwareType,DateUTC
2013-08-11 00:02:00,57.0,57.0,30.14,SW,230,1.0,4.0,100,0.00,,,0.03,,2013-08-11 07:02:00,
2013-08-11 00:13:00,57.0,57.0,30.13,SW,219,2.0,4.0,100,0.00,,,0.03,,2013-08-11 07:13:00,
2013-08-11 00:44:00,57.0,57.0,30.13,SSW,192,1.0,2.0,100,0.00,,,0.03,,2013-08-11 07:44:00,
2013-08-11 00:53:00,57.0,57.0,30.13,SSE,148,1.0,3.0,100,0.00,,,0.03,,2013-08-11 07:53:00,
2013-08-11 01:12:00,57.0,57.0,30.13,SSE,148,0.0,2.0,100,0.00,,,0.03,,2013-08-11 08:12:00,
2013-08-11 01:34:00,57.0,57.0,30.14,WSW,237,1.0,3.0,100,0.00,,,0.03,,2013-08-11 08:34:00,
2013-08-11 01:44:00,57.0,57.0,30.14,SW,222,0.0,1.0,100,0.00,,,0.03,,2013-08-11 08:44:00,
2013-08-11 01:52:00,57.0,57.0,30.14,SW,222,0.0,1.0,100,0.00,,,0.03,,2013-08-11 08:52:00,
2013-08-11 02:03:00,57.0,57.0,30.14,SW,222,0.0,0.0,100,0.00,,,0.03,,2013-08-11 09:03:00,
2013-08-11 02:12:00,57.0,57.0,30.13,SSW,192,0.0,3.0,100,0.00,,,0.03,,2013-08-11 09:12:00,
2013-08-11 02:33:00,57.0,57.0,30.14,South,185,1.0,2.0,100,0.00,,,0.03,,2013-08-11 09:33:00,
2013-08-11 02:42:00,57.0,57.0,30.14,SSE,158,3.0,4.0,100,0.00,,,0.03,,2013-08-11 09:42:00,
2013-08-11 02:53:00,57.0,57.0,30.14,South,172,1.0,4.0,100,0.00,,,0.03,,2013-08-11 09:53:00,
2013-08-11 03:02:00,57.0,57.0,30.14,South,172,1.0,4.0,100,0.00,,,0.03,,2013-08-11 10:02:00,
2013-08-11 03:13:00,57.0,57.0,30.14,SW,232,2.0,3.0,100,0.00,,,0.03,,2013-08-11 10:13:00,
2013-08-11 03:33:00,57.0,57.0,30.14,SW,234,0.0,3.0,100,0.00,,,0.03,,2013-08-11 10:33:00,
2013-08-11 03:43:00,56.0,56.0,30.14,South,171,1.0,3.0,100,0.00,,,0.03,,2013-08-11 10:43:00,
2013-08-11 03:52:00,57.0,57.0,30.14,South,169,0.0,3.0,100,0.00,,,0.03,,2013-08-11 10:52:00,
2013-08-11 04:02:00,57.0,57.0,30.14,South,169,0.0,3.0,100,0.00,,,0.03,,2013-08-11 11:02:00,
2013-08-11 04:12:00,57.0,57.0,30.13,South,169,1.0,2.0,100,0.00,,,0.03,,2013-08-11 11:12:00,
2013-08-11 04:21:00,57.0,57.0,30.13,South,169,1.0,2.0,100,0.00,,,0.03,,2013-08-11 11:21:00,
2013-08-11 04:33:00,57.0,57.0,30.13,SSW,196,1.0,3.0,100,0.00,,,0.03,,2013-08-11 11:33:00,
2013-08-11 04:44:00,57.0,57.0,30.13,SSE,153,2.0,3.0,100,0.00,,,0.03,,2013-08-11 11:44:00,
2013-08-11 05:12:00,57.0,57.0,30.13,SE,140,0.0,1.0,100,0.00,,,0.03,,2013-08-11 12:12:00,
2013-08-11 05:22:00,57.0,57.0,30.13,SE,140,0.0,1.0,100,0.00,,,0.03,,2013-08-11 12:22:00,
2013-08-11 05:32:00,57.0,57.0,30.13,SE,140,0.0,2.0,100,0.00,,,0.03,,2013-08-11 12:32:00,
2013-08-11 05:43:00,57.0,57.0,30.13,SE,140,0.0,1.0,100,0.00,,,0.03,,2013-08-11 12:43:00,
2013-08-11 05:52:00,57.0,57.0,30.13,SE,140,0.0,1.0,100,0.00,,,0.03,,2013-08-11 12:52:00,
2013-08-11 06:12:00,57.0,57.0,30.13,SSE,154,0.0,1.0,100,0.00,,,0.03,,2013-08-11 13:12:00,
2013-08-11 06:33:00,57.0,57.0,30.14,South,190,1.0,2.0,100,0.00,,,0.03,,2013-08-11 13:33:00,
2013-08-11 06:44:00,56.0,56.0,30.13,WNW,284,1.0,3.0,100,0.00,,,0.03,,2013-08-11 13:44:00,
2013-08-11 06:54:00,56.0,56.0,30.13,WNW,284,1.0,3.0,100,0.00,,,0.03,,2013-08-11 13:54:00,
2013-08-11 07:02:00,56.0,56.0,30.14,WNW,284,1.0,2.0,100,0.00,,,0.03,,2013-08-11 14:02:00,
2013-08-11 07:22:00,57.0,57.0,30.14,WNW,284,0.0,2.0,100,0.01,,,0.04,,2013-08-11 14:22:00,
2013-08-11 07:32:00,57.0,57.0,30.13,South,178,2.0,3.0,100,0.01,,,0.04,,2013-08-11 14:32:00,
2013-08-11 07:45:00,58.0,58.0,30.14,South,174,0.0,3.0,100,0.01,,,0.04,,2013-08-11 14:45:00,
2013-08-11 08:02:00,58.0,58.0,30.14,South,174,2.0,2.0,100,0.01,,,0.04,,2013-08-11 15:02:00,
2013-08-11 08:12:00,58.0,58.0,30.14,South,174,2.0,3.0,100,0.00,,,0.04,,2013-08-11 15:12:00,
2013-08-11 08:33:00,58.0,58.0,30.14,SSE,151,1.0,3.0,100,0.00,,,0.04,,2013-08-11 15:33:00,
2013-08-11 08:44:00,58.0,58.0,30.14,SSE,151,1.0,3.0,100,0.00,,,0.04,,2013-08-11 15:44:00,
2013-08-11 09:02:00,58.0,58.0,30.14,SE,143,1.0,3.0,100,0.00,,,0.04,,2013-08-11 16:02:00,
2013-08-11 09:12:00,58.0,58.0,30.14,SE,145,1.0,2.0,100,0.00,,,0.04,,2013-08-11 16:12:00,
2013-08-11 09:44:00,59.0,59.0,30.14,SW,236,1.0,2.0,100,0.00,,,0.04,,2013-08-11 16:44:00,
2013-08-11 10:03:00,59.0,59.0,30.14,WSW,249,3.0,4.0,100,0.00,,,0.04,,2013-08-11 17:03:00,
2013-08-11 10:12:00,58.0,58.0,30.14,WSW,237,4.0,5.0,100,0.00,,,0.04,,2013-08-11 17:12:00,
2013-08-11 10:32:00,59.0,59.0,30.14,SW,229,4.0,6.0,100,0.00,,,0.04,,2013-08-11 17:32:00,
2013-08-11 10:44:00,58.0,58.0,30.14,WSW,248,4.0,6.0,100,0.00,,,0.04,,2013-08-11 17:44:00,
2013-08-11 10:52:00,58.0,58.0,30.14,WSW,248,4.0,6.0,100,0.00,,,0.04,,2013-08-11 17:52:00,
2013-08-11 11:15:00,58.0,58.0,30.14,SSW,210,3.0,6.0,100,0.00,,,0.04,,2013-08-11 18:15:00,
2013-08-11 11:22:00,58.0,58.0,30.14,SW,230,2.0,6.0,100,0.00,,,0.04,,2013-08-11 18:22:00,
2013-08-11 11:36:00,58.0,58.0,30.14,SW,230,2.0,6.0,100,0.00,,,0.04,,2013-08-11 18:36:00,
2013-08-11 11:45:00,58.0,58.0,30.14,SW,236,2.0,5.0,100,0.00,,,0.04,,2013-08-11 18:45:00,
2013-08-11 11:52:00,59.0,59.0,30.14,WNW,284,2.0,4.0,100,0.00,,,0.04,,2013-08-11 18:52:00,
2013-08-11 12:03:00,59.0,59.0,30.14,WNW,284,2.0,4.0,100,0.00,,,0.04,,2013-08-11 19:03:00,
2013-08-11 12:12:00,58.0,58.0,30.14,SW,236,4.0,6.0,100,0.00,,,0.04,,2013-08-11 19:12:00,
2013-08-11 12:32:00,58.0,58.0,30.14,West,281,2.0,4.0,100,0.00,,,0.04,,2013-08-11 19:32:00,
2013-08-11 12:45:00,58.0,58.0,30.14,NW,307,2.0,4.0,100,0.00,,,0.04,,2013-08-11 19:45:00,
2013-08-11 12:54:00,58.0,58.0,30.14,NW,307,2.0,4.0,100,0.00,,,0.04,,2013-08-11 19:54:00,
2013-08-11 13:02:00,59.0,59.0,30.14,WNW,297,4.0,7.0,100,0.00,,,0.04,,2013-08-11 20:02:00,
2013-08-11 13:16:00,60.0,60.0,30.14,WNW,294,4.0,6.0,100,0.00,,,0.04,,2013-08-11 20:16:00,
2013-08-11 13:33:00,60.0,60.0,30.14,West,279,6.0,9.0,100,0.00,,,0.04,,2013-08-11 20:33:00,
2013-08-11 13:45:00,60.0,60.0,30.14,WSW,257,5.0,7.0,100,0.00,,,0.04,,2013-08-11 20:45:00,
2013-08-11 13:53:00,60.0,60.0,30.14,WSW,257,5.0,7.0,100,0.00,,,0.04,,2013-08-11 20:53:00,
2013-08-11 14:02:00,59.0,59.0,30.14,WSW,250,3.0,6.0,100,0.00,,,0.04,,2013-08-11 21:02:00,
2013-08-11 14:11:00,60.0,60.0,30.14,West,271,5.0,7.0,100,0.00,,,0.04,,2013-08-11 21:11:00,
2013-08-11 14:33:00,62.0,62.0,30.14,WNW,294,4.0,7.0,100,0.00,,,0.04,,2013-08-11 21:33:00,
2013-08-11 14:44:00,61.0,61.0,30.14,West,271,4.0,11.0,100,0.00,,,0.04,,2013-08-11 21:44:00,
2013-08-11 14:52:00,61.0,61.0,30.14,West,271,4.0,11.0,100,0.00,,,0.04,,2013-08-11 21:52:00,
2013-08-11 15:12:00,62.0,62.0,30.14,West,280,9.0,12.0,100,0.00,,,0.04,,2013-08-11 22:12:00,
2013-08-11 15:33:00,61.0,61.0,30.13,West,278,5.0,11.0,100,0.00,,,0.04,,2013-08-11 22:33:00,
2013-08-11 15:44:00,61.0,61.0,30.13,West,278,5.0,11.0,100,0.00,,,0.04,,2013-08-11 22:44:00,
2013-08-11 15:53:00,61.0,61.0,30.13,West,278,5.0,11.0,100,0.00,,,0.04,,2013-08-11 22:53:00,
2013-08-11 16:02:00,61.0,61.0,30.13,West,273,6.0,10.0,100,0.00,,,0.04,,2013-08-11 23:02:00,
2013-08-11 16:12:00,61.0,61.0,30.12,West,281,8.0,11.0,100,0.00,,,0.04,,2013-08-11 23:12:00,
2013-08-11 16:32:00,61.0,61.0,30.12,WNW,297,8.0,11.0,100,0.00,,,0.04,,2013-08-11 23:32:00,
2013-08-11 16:44:00,60.0,60.0,30.12,West,273,6.0,12.0,100,0.00,,,0.04,,2013-08-11 23:44:00,
2013-08-11 17:02:00,60.0,60.0,30.12,West,267,6.0,11.0,100,0.00,,,0.04,,2013-08-12 00:02:00,
2013-08-11 17:12:00,60.0,60.0,30.12,NW,314,6.0,11.0,100,0.00,,,0.04,,2013-08-12 00:12:00,
2013-08-11 17:33:00,60.0,60.0,30.12,WNW,297,7.0,11.0,100,0.00,,,0.04,,2013-08-12 00:33:00,
2013-08-11 17:44:00,60.0,60.0,30.11,West,279,5.0,11.0,100,0.00,,,0.04,,2013-08-12 00:44:00,
2013-08-11 18:13:00,61.0,61.0,30.11,WNW,284,6.0,10.0,100,0.00,,,0.02,,2013-08-12 01:13:00,
2013-08-11 18:22:00,60.0,60.0,30.11,WNW,284,6.0,9.0,100,0.00,,,0.02,,2013-08-12 01:22:00,
2013-08-11 18:33:00,60.0,60.0,30.11,WNW,284,6.0,9.0,100,0.00,,,0.02,,2013-08-12 01:33:00,
2013-08-11 18:43:00,61.0,61.0,30.11,West,278,5.0,9.0,100,0.00,,,0.02,,2013-08-12 01:43:00,
2013-08-11 18:53:00,61.0,61.0,30.11,NW,306,6.0,7.0,100,0.00,,,0.01,,2013-08-12 01:53:00,
2013-08-11 19:03:00,61.0,61.0,30.11,NW,306,6.0,7.0,100,0.00,,,0.01,,2013-08-12 02:03:00,
2013-08-11 19:12:00,60.0,60.0,30.10,West,281,5.0,10.0,100,0.00,,,0.01,,2013-08-12 02:12:00,
2013-08-11 19:22:00,60.0,60.0,30.10,West,281,5.0,10.0,100,0.00,,,0.01,,2013-08-12 02:22:00,
2013-08-11 19:33:00,60.0,60.0,30.10,WNW,295,6.0,10.0,100,0.00,,,0.01,,2013-08-12 02:33:00,
2013-08-11 19:43:00,60.0,60.0,30.10,NW,318,4.0,9.0,100,0.00,,,0.01,,2013-08-12 02:43:00,
2013-08-11 19:52:00,60.0,60.0,30.10,NW,318,4.0,9.0,100,0.00,,,0.01,,2013-08-12 02:52:00,
2013-08-11 20:02:00,59.0,59.0,30.10,NW,306,5.0,9.0,100,0.00,,,0.01,,2013-08-12 03:02:00,
2013-08-11 20:12:00,59.0,59.0,30.10,NNW,329,5.0,7.0,100,0.00,,,0.01,,2013-08-12 03:12:00,
2013-08-11 20:33:00,59.0,59.0,30.10,NW,322,4.0,9.0,100,0.00,,,0.01,,2013-08-12 03:33:00,
2013-08-11 20:44:00,59.0,59.0,30.10,NW,306,3.0,6.0,100,0.00,,,0.01,,2013-08-12 03:44:00,
2013-08-11 20:52:00,59.0,59.0,30.10,NW,314,3.0,7.0,100,0.00,,,0.01,,2013-08-12 03:52:00,
2013-08-11 21:02:00,59.0,59.0,30.10,NW,314,3.0,7.0,100,0.00,,,0.01,,2013-08-12 04:02:00,
2013-08-11 21:12:00,59.0,59.0,30.11,WNW,296,3.0,5.0,100,0.00,,,0.01,,2013-08-12 04:12:00,
2013-08-11 21:22:00,59.0,59.0,30.11,WNW,296,3.0,5.0,100,0.00,,,0.01,,2013-08-12 04:22:00,
2013-08-11 21:32:00,58.0,58.0,30.11,WNW,302,2.0,3.0,100,0.00,,,0.01,,2013-08-12 04:32:00,
2013-08-11 21:43:00,58.0,58.0,30.11,WNW,300,1.0,3.0,100,0.00,,,0.01,,2013-08-12 04:43:00,
2013-08-11 21:52:00,58.0,58.0,30.11,WNW,300,1.0,3.0,100,0.00,,,0.01,,2013-08-12 04:52:00,
2013-08-11 22:02:00,58.0,58.0,30.11,WNW,300,0.0,2.0,100,0.00,,,0.01,,2013-08-12 05:02:00,
2013-08-11 22:11:00,58.0,58.0,30.12,WNW,300,0.0,0.0,100,0.00,,,0.01,,2013-08-12 05:11:00,
2013-08-11 22:32:00,58.0,58.0,30.12,WNW,300,0.0,2.0,100,0.00,,,0.01,,2013-08-12 05:32:00,
2013-08-11 22:43:00,58.0,58.0,30.12,WNW,300,1.0,2.0,100,0.00,,,0.01,,2013-08-12 05:43:00,
2013-08-11 22:52:00,58.0,58.0,30.12,WNW,300,1.0,2.0,100,0.00,,,0.01,,2013-08-12 05:52:00,
2013-08-11 23:01:00,58.0,58.0,30.12,WNW,299,1.0,3.0,100,0.00,,,0.01,,2013-08-12 06:01:00,
2013-08-11 23:11:00,57.0,57.0,30.12,WNW,299,0.0,2.0,100,0.00,,,0.01,,2013-08-12 06:11:00,
2013-08-11 23:21:00,57.0,57.0,30.12,NNE,19,1.0,2.0,100,0.00,,,0.01,,2013-08-12 06:21:00,
2013-08-11 23:32:00,57.0,57.0,30.12,NNE,19,1.0,2.0,100,0.00,,,0.01,,2013-08-12 06:32:00,
2013-08-11 23:42:00,57.0,57.0,30.12,NNE,19,0.0,1.0,100,0.00,,,0.01,,2013-08-12 06:42:00,
2013-08-11 23:52:00,57.0,57.0,30.12,NNE,19,0.0,2.0,100,0.00,,,0.01,,2013-08-12 06:52:00,